DELTA 1 DEB, 3126

Orbit data source: Space-Track

DELTA 1 DEB, 3126 is space debris in LEO originally from a launch on Thu, 11 Jan 1968 UTC launched from the Air Force Western Test Range (AFWTR). Debris objects in space refer to the collection of defunct objects orbiting the Earth. Examples of debris include non-operational satellites, rocket bodies, and fragments generated from explosions, collisions, or faulty payload assembly.

Loading next visibility...
Identifier
3126, 1968-002C
Orbit
LEO
Country
Flag of USUS
Related business
Manufacturer
Unknown
Mission
Spacecraft
Bus & Motor
Unknown
Mass
Unknown
Launch date (UTC)
1968-01-11 (58 years ago)
Launch vehicle
Unknown
Launch site
Air Force Western Test Range (AFWTR)
Object type
Payload
Rocket body
Debris
Shape & HBR
Unknown shape, 0.1 m
Radar Cross Section
Small (<0.1 m²)

Expand to show TLE details & history
Last TLE update: 1 day ago

TLE from 1 day ago
0 DELTA 1 DEB
1 03126U 68002C   25309.46111321 -.00000058  00000-0  63421-4 0  9990
2 03126 106.0698 159.8052 0321287 156.1820 323.8958 12.82453649705600
Epoch: 2025-11-05T11:04Z
TLE epoch observation values (Epoch: 2025-11-05T11:04:00.181Z)
Latitude
58.28459°
Longitude
156.50012°
Altitude
1,143.78 km
Speed
7.379 km/s
True Right ascension
00h 29m 44s
True Declination
58° 08' 19"
Sunlit
Object was in full shadow at epoch
Visualization orbit readout
Latitude
Unknown
Longitude
Unknown
Altitude
Unknown
Speed
Unknown
Apparent Right ascension
Unknown
Apparent Declination
Unknown
Sunlit
N/A
Visualization observer readout
Local Sidereal Time
16:33:06
Azimuth
Unknown
Elevation
Unknown
Doppler factor
Unknown
Orbital elements
Apogee altitude
1,577.057 km
Perigee altitude
1,081.789 km
Semi-major axis
7,707.56 km
Eccentricity
0.03213
Inclination
106.0698°
RAAN
159.8052°
Arg. of periapsis
156.182°
True anomaly
321.65427°
Mean anomaly
323.8958°
Eccentric anomaly
322.78238°
Mean motion
3.20751 °/min
Orbital period
112.24 mins
BSTAR
0.000063421
Loading maneuver chart data...
Computing Atmospheric mass density...
Loading historical data...
Loading historical data...
Loading historical data...
Loading historical data...
Loading historical data...
Loading historical data...
Loading historical data...

Documentation

Showing up to 5 results
|